Time,TemperatureF,DewpointF,PressureIn,WindDirection,WindDirectionDegrees,WindSpeedMPH,WindSpeedGustMPH,Humidity,HourlyPrecipIn,Conditions,Clouds,dailyrainin,SoftwareType,DateUTC
2013-07-11 00:01:00,84.0,73.0,29.91,SSE,162,0.0,0.0,69,0.00,,,0.00,,2013-07-11 05:01:00,
2013-07-11 00:12:00,84.0,73.0,29.91,SSE,162,0.0,0.0,69,0.00,,,0.00,,2013-07-11 05:12:00,
2013-07-11 00:22:00,83.0,73.0,29.91,SSE,162,0.0,0.0,71,0.00,,,0.00,,2013-07-11 05:22:00,
2013-07-11 00:32:00,83.0,72.0,29.91,SSE,162,0.0,0.0,69,0.00,,,0.00,,2013-07-11 05:32:00,
2013-07-11 00:43:00,83.0,72.0,29.91,SSE,162,0.0,0.0,69,0.00,,,0.00,,2013-07-11 05:43:00,
2013-07-11 00:52:00,83.0,71.0,29.91,SSE,162,0.0,0.0,68,0.00,,,0.00,,2013-07-11 05:52:00,
2013-07-11 01:01:00,82.0,70.0,29.92,SSE,162,0.0,0.0,67,0.00,,,0.00,,2013-07-11 06:01:00,
2013-07-11 01:11:00,82.0,70.0,29.92,SSE,162,0.0,0.0,67,0.00,,,0.00,,2013-07-11 06:11:00,
2013-07-11 01:22:00,83.0,70.0,29.92,SSE,162,0.0,1.0,65,0.00,,,0.00,,2013-07-11 06:22:00,
2013-07-11 01:32:00,82.0,69.0,29.91,SSE,162,0.0,1.0,66,0.00,,,0.00,,2013-07-11 06:32:00,
2013-07-11 01:43:00,82.0,69.0,29.91,SSE,162,0.0,1.0,66,0.00,,,0.00,,2013-07-11 06:43:00,
2013-07-11 01:53:00,82.0,69.0,29.91,SSE,162,0.0,0.0,66,0.00,,,0.00,,2013-07-11 06:53:00,
2013-07-11 02:01:00,82.0,69.0,29.91,SSE,162,0.0,0.0,66,0.00,,,0.00,,2013-07-11 07:01:00,
2013-07-11 02:12:00,82.0,69.0,29.91,SSE,162,0.0,0.0,66,0.00,,,0.00,,2013-07-11 07:12:00,
2013-07-11 02:22:00,81.0,69.0,29.92,SSE,162,0.0,0.0,67,0.00,,,0.00,,2013-07-11 07:22:00,
2013-07-11 02:32:00,81.0,69.0,29.92,SSE,165,0.0,0.0,66,0.00,,,0.00,,2013-07-11 07:32:00,
2013-07-11 02:45:00,81.0,69.0,29.92,SSE,165,0.0,0.0,66,0.00,,,0.00,,2013-07-11 07:45:00,
2013-07-11 02:53:00,81.0,69.0,29.92,SW,228,0.0,1.0,66,0.00,,,0.00,,2013-07-11 07:53:00,
2013-07-11 03:02:00,81.0,69.0,29.92,SW,228,0.0,0.0,66,0.00,,,0.00,,2013-07-11 08:02:00,
2013-07-11 03:11:00,81.0,69.0,29.92,SW,228,0.0,0.0,66,0.00,,,0.00,,2013-07-11 08:11:00,
2013-07-11 03:22:00,80.0,69.0,29.92,SW,228,0.0,0.0,69,0.00,,,0.00,,2013-07-11 08:22:00,
2013-07-11 03:34:00,80.0,70.0,29.92,SW,228,0.0,0.0,71,0.00,,,0.00,,2013-07-11 08:34:00,
2013-07-11 03:43:00,80.0,70.0,29.92,SW,228,0.0,0.0,71,0.00,,,0.00,,2013-07-11 08:43:00,
2013-07-11 03:53:00,79.0,70.0,29.92,SW,227,0.0,0.0,73,0.00,,,0.00,,2013-07-11 08:53:00,
2013-07-11 04:02:00,78.0,69.0,29.91,SW,228,0.0,0.0,75,0.00,,,0.00,,2013-07-11 09:02:00,
2013-07-11 04:12:00,78.0,69.0,29.91,SW,228,0.0,0.0,75,0.00,,,0.00,,2013-07-11 09:12:00,
2013-07-11 04:21:00,78.0,69.0,29.91,SW,228,0.0,0.0,75,0.00,,,0.00,,2013-07-11 09:21:00,
2013-07-11 04:33:00,78.0,70.0,29.91,SW,227,0.0,0.0,76,0.00,,,0.00,,2013-07-11 09:33:00,
2013-07-11 04:43:00,78.0,70.0,29.91,SW,227,0.0,0.0,76,0.00,,,0.00,,2013-07-11 09:43:00,
2013-07-11 04:53:00,77.0,70.0,29.90,SW,228,0.0,0.0,78,0.00,,,0.00,,2013-07-11 09:53:00,
2013-07-11 05:01:00,78.0,69.0,29.91,ENE,77,1.0,2.0,75,0.00,,,0.00,,2013-07-11 10:01:00,
2013-07-11 05:12:00,78.0,69.0,29.91,ENE,77,1.0,2.0,75,0.00,,,0.00,,2013-07-11 10:12:00,
2013-07-11 05:22:00,78.0,69.0,29.91,SE,129,0.0,1.0,75,0.00,,,0.00,,2013-07-11 10:22:00,
2013-07-11 05:33:00,78.0,69.0,29.91,East,97,0.0,2.0,75,0.00,,,0.00,,2013-07-11 10:33:00,
2013-07-11 05:42:00,78.0,69.0,29.91,East,97,0.0,2.0,75,0.00,,,0.00,,2013-07-11 10:42:00,
2013-07-11 05:52:00,77.0,69.0,29.91,SE,129,0.0,3.0,76,0.00,,,0.00,,2013-07-11 10:52:00,
2013-07-11 06:02:00,77.0,69.0,29.91,SE,124,0.0,1.0,77,0.00,,,0.00,,2013-07-11 11:02:00,
2013-07-11 06:12:00,77.0,69.0,29.91,SE,124,0.0,1.0,77,0.00,,,0.00,,2013-07-11 11:12:00,
2013-07-11 06:22:00,77.0,69.0,29.91,ESE,114,0.0,0.0,77,0.00,,,0.00,,2013-07-11 11:22:00,
2013-07-11 06:32:00,76.0,68.0,29.92,ESE,115,0.0,0.0,77,0.00,,,0.00,,2013-07-11 11:32:00,
2013-07-11 06:43:00,76.0,68.0,29.92,ESE,115,0.0,0.0,77,0.00,,,0.00,,2013-07-11 11:43:00,
2013-07-11 06:53:00,76.0,69.0,29.92,ESE,114,0.0,1.0,78,0.00,,,0.00,,2013-07-11 11:53:00,
2013-07-11 07:01:00,76.0,69.0,29.92,ESE,115,0.0,0.0,78,0.00,,,0.00,,2013-07-11 12:01:00,
2013-07-11 07:12:00,76.0,69.0,29.92,ESE,115,0.0,0.0,78,0.00,,,0.00,,2013-07-11 12:12:00,
2013-07-11 07:22:00,77.0,70.0,29.92,ESE,114,0.0,0.0,78,0.00,,,0.00,,2013-07-11 12:22:00,
2013-07-11 07:33:00,80.0,71.0,29.93,ESE,115,0.0,0.0,74,0.00,,,0.00,,2013-07-11 12:33:00,
2013-07-11 07:43:00,80.0,71.0,29.93,ESE,115,0.0,0.0,74,0.00,,,0.00,,2013-07-11 12:43:00,
2013-07-11 07:57:00,83.0,72.0,29.93,ESE,114,0.0,1.0,69,0.00,,,0.00,,2013-07-11 12:57:00,
2013-07-11 08:13:00,83.0,71.0,29.93,ESE,114,0.0,1.0,68,0.00,,,0.00,,2013-07-11 13:13:00,
2013-07-11 08:23:00,85.0,72.0,29.93,South,177,0.0,2.0,66,0.00,,,0.00,,2013-07-11 13:23:00,
2013-07-11 09:14:00,88.0,72.0,29.93,SSE,160,0.0,2.0,59,0.00,,,0.00,,2013-07-11 14:14:00,
2013-07-11 09:23:00,89.0,72.0,29.93,SSW,206,0.0,2.0,58,0.00,,,0.00,,2013-07-11 14:23:00,
2013-07-11 09:35:00,89.0,72.0,29.93,SSW,206,0.0,2.0,58,0.00,,,0.00,,2013-07-11 14:35:00,
2013-07-11 09:45:00,90.0,72.0,29.93,SW,217,0.0,2.0,55,0.00,,,0.00,,2013-07-11 14:45:00,
2013-07-11 09:53:00,90.0,71.0,29.93,SSE,162,0.0,2.0,53,0.00,,,0.00,,2013-07-11 14:53:00,
2013-07-11 10:04:00,90.0,71.0,29.93,SSE,162,0.0,2.0,53,0.00,,,0.00,,2013-07-11 15:04:00,
2013-07-11 10:13:00,92.0,71.0,29.92,SW,224,1.0,5.0,51,0.00,,,0.00,,2013-07-11 15:13:00,
2013-07-11 10:23:00,93.0,70.0,29.92,WNW,302,0.0,3.0,48,0.00,,,0.00,,2013-07-11 15:23:00,
2013-07-11 10:35:00,93.0,70.0,29.92,WNW,302,0.0,3.0,48,0.00,,,0.00,,2013-07-11 15:35:00,
2013-07-11 10:45:00,93.0,70.0,29.92,West,280,0.0,3.0,48,0.00,,,0.00,,2013-07-11 15:45:00,
2013-07-11 10:55:00,95.0,72.0,29.92,WSW,252,0.0,2.0,47,0.00,,,0.00,,2013-07-11 15:55:00,
2013-07-11 11:34:00,96.0,70.0,29.92,WNW,298,2.0,10.0,43,0.00,,,0.00,,2013-07-11 16:34:00,
2013-07-11 11:45:00,97.0,70.0,29.92,WSW,255,0.0,3.0,42,0.00,,,0.00,,2013-07-11 16:45:00,
2013-07-11 11:54:00,98.0,70.0,29.93,West,278,0.0,8.0,40,0.00,,,0.00,,2013-07-11 16:54:00,
2013-07-11 12:02:00,98.0,70.0,29.93,West,278,0.0,8.0,40,0.00,,,0.00,,2013-07-11 17:02:00,
2013-07-11 12:14:00,99.0,70.0,29.92,WSW,252,0.0,2.0,39,0.00,,,0.00,,2013-07-11 17:14:00,
2013-07-11 12:36:00,99.0,68.0,29.91,SSW,206,0.0,4.0,37,0.00,,,0.00,,2013-07-11 17:36:00,
2013-07-11 12:45:00,100.0,70.0,29.91,SW,219,0.0,1.0,38,0.00,,,0.00,,2013-07-11 17:45:00,
2013-07-11 12:52:00,101.0,70.0,29.91,SSE,155,0.0,3.0,37,0.00,,,0.00,,2013-07-11 17:52:00,
2013-07-11 13:03:00,101.0,70.0,29.91,SSE,155,0.0,3.0,37,0.00,,,0.00,,2013-07-11 18:03:00,
2013-07-11 13:14:00,102.0,70.0,29.91,NNW,348,0.0,5.0,36,0.00,,,0.00,,2013-07-11 18:14:00,
2013-07-11 13:22:00,102.0,68.0,29.91,NNE,15,1.0,4.0,34,0.00,,,0.00,,2013-07-11 18:22:00,
2013-07-11 13:35:00,102.0,68.0,29.91,NNE,15,1.0,4.0,34,0.00,,,0.00,,2013-07-11 18:35:00,
2013-07-11 13:45:00,102.0,69.0,29.90,WSW,256,0.0,2.0,35,0.00,,,0.00,,2013-07-11 18:45:00,
2013-07-11 13:53:00,102.0,67.0,29.90,NNW,327,0.0,5.0,33,0.00,,,0.00,,2013-07-11 18:53:00,
2013-07-11 14:03:00,102.0,67.0,29.90,NNW,327,0.0,5.0,33,0.00,,,0.00,,2013-07-11 19:03:00,
2013-07-11 14:13:00,102.0,67.0,29.89,WSW,246,1.0,5.0,32,0.00,,,0.00,,2013-07-11 19:13:00,
2013-07-11 14:23:00,102.0,67.0,29.88,NNW,338,1.0,5.0,32,0.00,,,0.00,,2013-07-11 19:23:00,
2013-07-11 14:36:00,102.0,67.0,29.88,NNW,338,1.0,5.0,32,0.00,,,0.00,,2013-07-11 19:36:00,
2013-07-11 14:44:00,103.0,67.0,29.88,East,80,1.0,4.0,32,0.00,,,0.00,,2013-07-11 19:44:00,
2013-07-11 14:54:00,104.0,67.0,29.88,East,96,1.0,4.0,31,0.00,,,0.00,,2013-07-11 19:54:00,
2013-07-11 15:03:00,104.0,67.0,29.88,East,96,1.0,4.0,31,0.00,,,0.00,,2013-07-11 20:03:00,
2013-07-11 15:12:00,104.0,68.0,29.87,WSW,240,0.0,2.0,32,0.00,,,0.00,,2013-07-11 20:12:00,
2013-07-11 15:36:00,104.0,69.0,29.86,WSW,256,0.0,3.0,33,0.00,,,0.00,,2013-07-11 20:36:00,
2013-07-11 15:46:00,104.0,66.0,29.85,NE,37,4.0,6.0,30,0.00,,,0.00,,2013-07-11 20:46:00,
2013-07-11 15:53:00,103.0,66.0,29.85,ENE,69,3.0,6.0,31,0.00,,,0.00,,2013-07-11 20:53:00,
2013-07-11 16:13:00,103.0,68.0,29.85,East,98,2.0,7.0,33,0.00,,,0.00,,2013-07-11 21:13:00,
2013-07-11 16:23:00,104.0,66.0,29.84,SSW,193,1.0,5.0,30,0.00,,,0.00,,2013-07-11 21:23:00,
2013-07-11 16:34:00,104.0,66.0,29.84,SSW,193,1.0,5.0,30,0.00,,,0.00,,2013-07-11 21:34:00,
2013-07-11 16:44:00,104.0,66.0,29.84,SW,233,1.0,3.0,30,0.00,,,0.00,,2013-07-11 21:44:00,
2013-07-11 17:04:00,104.0,66.0,29.83,SE,132,2.0,6.0,30,0.00,,,0.00,,2013-07-11 22:04:00,
2013-07-11 17:14:00,104.0,67.0,29.83,West,266,2.0,3.0,31,0.00,,,0.00,,2013-07-11 22:14:00,
2013-07-11 17:23:00,104.0,67.0,29.82,East,85,3.0,6.0,31,0.00,,,0.00,,2013-07-11 22:23:00,
2013-07-11 17:32:00,104.0,67.0,29.82,East,85,3.0,6.0,31,0.00,,,0.00,,2013-07-11 22:32:00,
2013-07-11 17:45:00,103.0,67.0,29.82,WSW,248,0.0,3.0,32,0.00,,,0.00,,2013-07-11 22:45:00,
2013-07-11 17:54:00,100.0,68.0,29.82,ESE,115,1.0,7.0,36,0.00,,,0.00,,2013-07-11 22:54:00,
2013-07-11 18:04:00,100.0,68.0,29.82,ESE,115,1.0,7.0,36,0.00,,,0.00,,2013-07-11 23:04:00,
2013-07-11 18:13:00,99.0,69.0,29.82,ESE,121,0.0,3.0,38,0.00,,,0.00,,2013-07-11 23:13:00,
2013-07-11 18:23:00,99.0,70.0,29.82,East,79,3.0,5.0,39,0.00,,,0.00,,2013-07-11 23:23:00,
2013-07-11 18:34:00,99.0,70.0,29.82,East,79,3.0,5.0,39,0.00,,,0.00,,2013-07-11 23:34:00,
2013-07-11 18:46:00,99.0,70.0,29.82,SE,131,1.0,6.0,40,0.00,,,0.00,,2013-07-11 23:46:00,
2013-07-11 18:54:00,97.0,69.0,29.81,SSW,203,2.0,7.0,40,0.00,,,0.00,,2013-07-11 23:54:00,
2013-07-11 19:03:00,97.0,69.0,29.81,SSW,203,2.0,7.0,40,0.00,,,0.00,,2013-07-12 00:03:00,
2013-07-11 19:13:00,95.0,68.0,29.81,South,188,1.0,6.0,42,0.00,,,0.00,,2013-07-12 00:13:00,
2013-07-11 19:23:00,95.0,69.0,29.82,SW,214,1.0,5.0,43,0.00,,,0.00,,2013-07-12 00:23:00,
2013-07-11 19:34:00,95.0,69.0,29.82,SW,214,1.0,5.0,43,0.00,,,0.00,,2013-07-12 00:34:00,
2013-07-11 19:54:00,91.0,69.0,29.86,SE,138,6.0,14.0,49,0.00,,,0.00,,2013-07-12 00:54:00,
2013-07-11 20:02:00,91.0,69.0,29.86,SE,138,6.0,14.0,49,0.00,,,0.00,,2013-07-12 01:02:00,
2013-07-11 20:12:00,87.0,68.0,29.86,ESE,117,2.0,9.0,54,0.00,,,0.00,,2013-07-12 01:12:00,
2013-07-11 20:35:00,86.0,68.0,29.87,ESE,121,2.0,9.0,56,0.00,,,0.00,,2013-07-12 01:35:00,
2013-07-11 20:45:00,85.0,69.0,29.87,SW,232,1.0,5.0,59,0.00,,,0.00,,2013-07-12 01:45:00,
2013-07-11 20:55:00,86.0,69.0,29.87,SW,221,0.0,3.0,57,0.00,,,0.00,,2013-07-12 01:55:00,
2013-07-11 21:15:00,86.0,68.0,29.86,SW,231,1.0,4.0,55,0.00,,,0.00,,2013-07-12 02:15:00,
2013-07-11 21:24:00,86.0,69.0,29.86,SSW,207,0.0,6.0,57,0.00,,,0.00,,2013-07-12 02:24:00,
2013-07-11 21:35:00,86.0,69.0,29.86,SSW,207,0.0,6.0,57,0.00,,,0.00,,2013-07-12 02:35:00,
2013-07-11 21:44:00,85.0,69.0,29.86,SW,232,0.0,2.0,59,0.00,,,0.00,,2013-07-12 02:44:00,
2013-07-11 21:52:00,85.0,70.0,29.86,SSE,147,0.0,3.0,62,0.00,,,0.00,,2013-07-12 02:52:00,
2013-07-11 22:02:00,85.0,70.0,29.86,SSE,147,0.0,3.0,62,0.00,,,0.00,,2013-07-12 03:02:00,
2013-07-11 22:14:00,84.0,70.0,29.88,East,79,0.0,2.0,64,0.00,,,0.00,,2013-07-12 03:14:00,
2013-07-11 22:23:00,84.0,70.0,29.88,ESE,115,0.0,3.0,64,0.00,,,0.00,,2013-07-12 03:23:00,
2013-07-11 22:35:00,84.0,70.0,29.88,ESE,115,0.0,3.0,64,0.00,,,0.00,,2013-07-12 03:35:00,
2013-07-11 22:43:00,83.0,70.0,29.89,ESE,121,0.0,5.0,65,0.00,,,0.00,,2013-07-12 03:43:00,
2013-07-11 22:53:00,82.0,71.0,29.90,ESE,116,0.0,3.0,69,0.00,,,0.00,,2013-07-12 03:53:00,
2013-07-11 23:01:00,82.0,71.0,29.90,ESE,116,0.0,3.0,69,0.00,,,0.00,,2013-07-12 04:01:00,
2013-07-11 23:11:00,82.0,71.0,29.91,SSE,159,0.0,1.0,70,0.00,,,0.00,,2013-07-12 04:11:00,
2013-07-11 23:21:00,82.0,72.0,29.91,East,96,0.0,0.0,71,0.00,,,0.00,,2013-07-12 04:21:00,
2013-07-11 23:32:00,82.0,72.0,29.91,East,96,0.0,0.0,71,0.00,,,0.00,,2013-07-12 04:32:00,
2013-07-11 23:43:00,82.0,72.0,29.91,East,98,0.0,0.0,72,0.00,,,0.00,,2013-07-12 04:43:00,
2013-07-11 23:53:00,82.0,72.0,29.91,East,98,0.0,0.0,71,0.00,,,0.00,,2013-07-12 04:53:00,